Time,TemperatureF,DewpointF,PressureIn,WindDirection,WindDirectionDegrees,WindSpeedMPH,WindSpeedGustMPH,Humidity,HourlyPrecipIn,Conditions,Clouds,dailyrainin,SolarRadiationWatts/m^2,SoftwareType,DateUTC
2013-05-26 00:00:00,71.9,68.2,29.82,SE,132,7.0,13.0,88,0.00,,SKC,0.03,0.00,VWS V14.01,2013-05-26 05:00:00,
2013-05-26 00:01:00,71.9,68.2,29.82,SE,132,7.0,13.0,88,0.00,,---,0.03,0.00,VWS V14.00,2013-05-26 05:01:00,
2013-05-26 00:06:00,71.9,68.2,29.82,SE,127,11.0,15.0,88,0.00,,---,0.00,0.00,VWS V14.00,2013-05-26 05:06:00,
2013-05-26 00:10:00,71.9,68.2,29.82,SE,130,6.0,17.0,88,0.00,,SKC,0.00,0.00,VWS V14.01,2013-05-26 05:10:00,
2013-05-26 00:11:00,72.0,68.3,29.82,SE,140,7.0,17.0,88,0.00,,---,0.00,0.00,VWS V14.00,2013-05-26 05:11:00,
2013-05-26 00:16:00,72.0,68.3,29.81,SE,132,5.0,14.0,88,0.00,,---,0.00,0.00,VWS V14.00,2013-05-26 05:16:00,
2013-05-26 00:20:00,71.9,68.2,29.81,SE,146,6.0,14.0,88,0.00,,SKC,0.00,0.00,VWS V14.01,2013-05-26 05:20:00,
2013-05-26 00:21:00,71.9,68.2,29.81,SSE,150,5.0,14.0,88,0.00,,---,0.00,0.00,VWS V14.00,2013-05-26 05:21:00,
2013-05-26 00:26:00,71.9,68.2,29.82,SE,125,8.0,12.0,88,0.00,,---,0.00,0.00,VWS V14.00,2013-05-26 05:26:00,
2013-05-26 00:30:00,71.9,68.2,29.82,SE,144,9.0,16.0,88,0.00,,SKC,0.00,0.00,VWS V14.01,2013-05-26 05:30:00,
2013-05-26 00:31:00,71.9,68.2,29.82,SE,146,11.0,16.0,88,0.00,,---,0.00,0.00,VWS V14.00,2013-05-26 05:31:00,
2013-05-26 00:36:00,71.9,68.2,29.83,SE,128,8.0,14.0,88,0.00,,---,0.00,0.00,VWS V14.00,2013-05-26 05:36:00,
2013-05-26 00:40:00,71.9,68.2,29.82,SE,139,8.0,14.0,88,0.00,,SKC,0.00,0.00,VWS V14.01,2013-05-26 05:40:00,
2013-05-26 00:41:00,71.9,68.2,29.82,SE,139,9.0,14.0,88,0.00,,---,0.00,0.00,VWS V14.00,2013-05-26 05:41:00,
2013-05-26 00:46:00,71.8,68.1,29.82,SSE,150,7.0,11.0,88,0.00,,---,0.00,0.00,VWS V14.00,2013-05-26 05:46:00,
2013-05-26 00:50:00,71.8,68.1,29.82,SE,132,9.0,13.0,88,0.00,,SKC,0.00,0.00,VWS V14.01,2013-05-26 05:50:00,
2013-05-26 00:51:00,71.9,68.2,29.82,ESE,123,5.0,11.0,88,0.00,,---,0.00,0.00,VWS V14.00,2013-05-26 05:51:00,
2013-05-26 00:56:00,71.8,68.1,29.82,SE,140,8.0,13.0,88,0.00,,---,0.00,0.00,VWS V14.00,2013-05-26 05:56:00,
2013-05-26 01:00:00,71.8,68.1,29.81,SSE,149,10.0,13.0,88,0.00,,SKC,0.00,0.00,VWS V14.01,2013-05-26 06:00:00,
2013-05-26 01:01:00,71.8,68.1,29.81,SE,133,9.0,13.0,88,0.00,,---,0.00,0.00,VWS V14.00,2013-05-26 06:01:00,
2013-05-26 01:06:00,71.8,68.1,29.81,SE,131,5.0,13.0,88,0.00,,---,0.00,0.00,VWS V14.00,2013-05-26 06:06:00,
2013-05-26 01:10:00,71.7,68.0,29.81,ESE,116,5.0,13.0,88,0.00,,SKC,0.00,0.00,VWS V14.01,2013-05-26 06:10:00,
2013-05-26 01:11:00,71.8,68.1,29.81,SE,132,8.0,13.0,88,0.00,,---,0.00,0.00,VWS V14.00,2013-05-26 06:11:00,
2013-05-26 01:16:00,71.8,68.1,29.81,SE,130,6.0,12.0,88,0.00,,---,0.00,0.00,VWS V14.00,2013-05-26 06:16:00,
2013-05-26 01:20:00,71.7,68.0,29.81,SE,136,8.0,12.0,88,0.00,,SKC,0.00,0.00,VWS V14.01,2013-05-26 06:20:00,
2013-05-26 01:21:00,71.7,68.0,29.81,SE,132,4.0,12.0,88,0.00,,---,0.00,0.00,VWS V14.00,2013-05-26 06:21:00,
2013-05-26 01:26:00,71.7,68.0,29.80,SE,126,9.0,14.0,88,0.00,,---,0.00,0.00,VWS V14.00,2013-05-26 06:26:00,
2013-05-26 01:30:00,71.7,68.0,29.80,SE,143,6.0,14.0,88,0.00,,SKC,0.00,0.00,VWS V14.01,2013-05-26 06:30:00,
2013-05-26 01:31:00,71.8,68.1,29.80,SE,143,4.0,14.0,88,0.00,,---,0.00,0.00,VWS V14.00,2013-05-26 06:31:00,
2013-05-26 01:36:00,71.7,68.0,29.80,East,101,8.0,13.0,88,0.00,,---,0.00,0.00,VWS V14.00,2013-05-26 06:36:00,
2013-05-26 01:40:00,71.7,68.0,29.80,SSE,149,5.0,13.0,88,0.00,,SKC,0.00,0.00,VWS V14.01,2013-05-26 06:40:00,
2013-05-26 01:41:00,71.8,68.1,29.80,SSE,149,7.0,13.0,88,0.00,,---,0.00,0.00,VWS V14.00,2013-05-26 06:41:00,
2013-05-26 01:46:00,71.8,68.1,29.80,SE,126,4.0,12.0,88,0.00,,---,0.00,0.00,VWS V14.00,2013-05-26 06:46:00,
2013-05-26 01:50:00,71.8,68.1,29.80,SE,136,9.0,12.0,88,0.00,,SKC,0.00,0.00,VWS V14.01,2013-05-26 06:50:00,
2013-05-26 01:51:00,71.7,68.0,29.80,SE,136,9.0,12.0,88,0.00,,---,0.00,0.00,VWS V14.00,2013-05-26 06:51:00,
2013-05-26 01:56:00,71.8,68.1,29.79,ESE,114,5.0,14.0,88,0.00,,---,0.00,0.00,VWS V14.00,2013-05-26 06:56:00,
2013-05-26 02:00:00,71.8,68.1,29.79,SE,138,9.0,14.0,88,0.00,,SKC,0.00,0.00,VWS V14.01,2013-05-26 07:00:00,
2013-05-26 02:01:00,71.8,68.1,29.79,SE,140,6.0,14.0,88,0.00,,---,0.00,0.00,VWS V14.00,2013-05-26 07:01:00,
2013-05-26 02:06:00,71.8,68.1,29.79,SE,126,6.0,15.0,88,0.00,,---,0.00,0.00,VWS V14.00,2013-05-26 07:06:00,
2013-05-26 02:10:00,71.7,67.6,29.79,SE,140,6.0,15.0,87,0.00,,SKC,0.00,0.00,VWS V14.01,2013-05-26 07:10:00,
2013-05-26 02:11:00,71.7,68.0,29.79,SE,136,7.0,15.0,88,0.00,,---,0.00,0.00,VWS V14.00,2013-05-26 07:11:00,
2013-05-26 02:16:00,71.7,68.0,29.79,ESE,119,6.0,11.0,88,0.00,,---,0.00,0.00,VWS V14.00,2013-05-26 07:16:00,
2013-05-26 02:20:00,71.7,67.6,29.79,SE,142,9.0,14.0,87,0.00,,SKC,0.00,0.00,VWS V14.01,2013-05-26 07:20:00,
2013-05-26 02:21:00,71.7,68.0,29.79,SE,142,10.0,14.0,88,0.00,,---,0.00,0.00,VWS V14.00,2013-05-26 07:21:00,
2013-05-26 02:26:00,71.7,67.6,29.79,ESE,120,6.0,13.0,87,0.00,,---,0.00,0.00,VWS V14.00,2013-05-26 07:26:00,
2013-05-26 02:30:00,71.7,68.0,29.79,ESE,122,4.0,13.0,88,0.00,,---,0.00,0.00,VWS V14.00,2013-05-26 07:30:00,
2013-05-26 02:36:00,71.7,67.6,29.79,SE,126,8.0,11.0,87,0.00,,---,0.00,0.00,VWS V14.00,2013-05-26 07:36:00,
2013-05-26 02:40:00,71.6,67.5,29.80,SE,143,6.0,14.0,87,0.00,,SKC,0.00,0.00,VWS V14.01,2013-05-26 07:40:00,
2013-05-26 02:41:00,71.6,67.5,29.80,SE,142,9.0,14.0,87,0.00,,---,0.00,0.00,VWS V14.00,2013-05-26 07:41:00,
2013-05-26 02:46:00,71.6,67.5,29.80,SE,144,4.0,9.0,87,0.00,,---,0.00,0.00,VWS V14.00,2013-05-26 07:46:00,
2013-05-26 02:50:00,71.5,67.4,29.80,SE,139,4.0,12.0,87,0.00,,SKC,0.00,0.00,VWS V14.01,2013-05-26 07:50:00,
2013-05-26 02:51:00,71.5,67.4,29.80,SE,139,6.0,12.0,87,0.00,,---,0.00,0.00,VWS V14.00,2013-05-26 07:51:00,
2013-05-26 02:56:00,71.5,67.8,29.80,SE,139,4.0,7.0,88,0.00,,---,0.00,0.00,VWS V14.00,2013-05-26 07:56:00,
2013-05-26 03:00:00,71.5,67.8,29.80,SE,137,5.0,11.0,88,0.00,,SKC,0.00,0.00,VWS V14.01,2013-05-26 08:00:00,
2013-05-26 03:01:00,71.5,67.8,29.80,SE,137,6.0,11.0,88,0.00,,---,0.00,0.00,VWS V14.00,2013-05-26 08:01:00,
2013-05-26 03:06:00,71.5,67.8,29.81,SE,137,2.0,8.0,88,0.00,,---,0.00,0.00,VWS V14.00,2013-05-26 08:06:00,
2013-05-26 03:10:00,71.4,67.7,29.81,SE,137,4.0,8.0,88,0.00,,SKC,0.00,0.00,VWS V14.01,2013-05-26 08:10:00,
2013-05-26 03:11:00,71.5,67.8,29.81,SE,137,4.0,8.0,88,0.00,,---,0.00,0.00,VWS V14.00,2013-05-26 08:11:00,
2013-05-26 03:16:00,71.4,67.7,29.80,SE,139,8.0,9.0,88,0.00,,---,0.00,0.00,VWS V14.00,2013-05-26 08:16:00,
2013-05-26 03:20:00,71.3,67.6,29.81,SE,139,4.0,11.0,88,0.00,,SKC,0.00,0.00,VWS V14.01,2013-05-26 08:20:00,
2013-05-26 03:21:00,71.3,67.6,29.81,SE,139,4.0,11.0,88,0.00,,---,0.00,0.00,VWS V14.00,2013-05-26 08:21:00,
2013-05-26 03:26:00,71.3,67.6,29.81,SE,139,4.0,10.0,88,0.00,,---,0.00,0.00,VWS V14.00,2013-05-26 08:26:00,
2013-05-26 03:30:00,71.2,67.8,29.80,SE,134,2.0,10.0,89,0.00,,SKC,0.00,0.00,VWS V14.01,2013-05-26 08:30:00,
2013-05-26 03:31:00,71.2,67.8,29.80,SE,134,5.0,10.0,89,0.00,,---,0.00,0.00,VWS V14.00,2013-05-26 08:31:00,
2013-05-26 03:36:00,71.1,67.7,29.80,SE,134,5.0,8.0,89,0.00,,---,0.00,0.00,VWS V14.00,2013-05-26 08:36:00,
2013-05-26 03:40:00,70.9,67.5,29.80,SE,125,5.0,13.0,89,0.00,,SKC,0.00,0.00,VWS V14.01,2013-05-26 08:40:00,
2013-05-26 03:41:00,71.0,67.6,29.80,SE,126,7.0,13.0,89,0.00,,---,0.00,0.00,VWS V14.00,2013-05-26 08:41:00,
2013-05-26 03:46:00,70.8,67.4,29.80,SE,125,6.0,11.0,89,0.00,,---,0.00,0.00,VWS V14.00,2013-05-26 08:46:00,
2013-05-26 03:50:00,70.6,67.5,29.80,SE,125,4.0,11.0,90,0.00,,SKC,0.00,0.00,VWS V14.01,2013-05-26 08:50:00,
2013-05-26 03:51:00,70.6,67.5,29.80,SE,125,6.0,11.0,90,0.00,,---,0.00,0.00,VWS V14.00,2013-05-26 08:51:00,
2013-05-26 03:56:00,70.5,67.4,29.80,SE,125,5.0,8.0,90,0.00,,---,0.00,0.00,VWS V14.00,2013-05-26 08:56:00,
2013-05-26 04:00:00,70.4,67.3,29.80,SE,125,2.0,8.0,90,0.00,,SKC,0.00,0.00,VWS V14.01,2013-05-26 09:00:00,
2013-05-26 04:01:00,70.4,67.3,29.80,SE,125,2.0,8.0,90,0.00,,---,0.00,0.00,VWS V14.00,2013-05-26 09:01:00,
2013-05-26 04:06:00,70.3,67.6,29.80,SE,125,0.0,7.0,91,0.00,,---,0.00,0.00,VWS V14.00,2013-05-26 09:06:00,
2013-05-26 04:10:00,70.2,67.4,29.80,SE,125,8.0,8.0,91,0.00,,SKC,0.00,0.00,VWS V14.01,2013-05-26 09:10:00,
2013-05-26 04:11:00,70.2,67.4,29.80,SE,125,7.0,8.0,91,0.00,,---,0.00,0.00,VWS V14.00,2013-05-26 09:11:00,
2013-05-26 04:16:00,70.2,67.4,29.80,SE,125,4.0,9.0,91,0.00,,---,0.00,0.00,VWS V14.00,2013-05-26 09:16:00,
2013-05-26 04:20:00,70.1,67.4,29.80,SE,125,5.0,9.0,91,0.00,,SKC,0.00,0.00,VWS V14.01,2013-05-26 09:20:00,
2013-05-26 04:21:00,70.1,67.4,29.80,SE,125,4.0,9.0,91,0.00,,---,0.00,0.00,VWS V14.00,2013-05-26 09:21:00,
2013-05-26 04:26:00,70.1,67.4,29.79,SE,125,6.0,6.0,91,0.00,,---,0.00,0.00,VWS V14.00,2013-05-26 09:26:00,
2013-05-26 04:30:00,70.1,67.4,29.79,SE,125,6.0,9.0,91,0.00,,SKC,0.00,0.00,VWS V14.01,2013-05-26 09:30:00,
2013-05-26 04:31:00,70.1,67.4,29.79,SE,125,5.0,9.0,91,0.00,,---,0.00,0.00,VWS V14.00,2013-05-26 09:31:00,
2013-05-26 04:36:00,70.1,67.4,29.79,SE,125,4.0,8.0,91,0.00,,---,0.00,0.00,VWS V14.00,2013-05-26 09:36:00,
2013-05-26 04:40:00,70.1,67.4,29.78,SE,125,5.0,12.0,91,0.00,,---,0.00,0.00,VWS V14.00,2013-05-26 09:40:00,
2013-05-26 04:45:00,70.1,67.4,29.78,SE,125,8.0,8.0,91,0.00,,---,0.00,0.00,VWS V14.00,2013-05-26 09:45:00,
2013-05-26 04:50:00,70.1,67.4,29.79,SE,125,2.0,8.0,91,0.00,,---,0.00,0.00,VWS V14.00,2013-05-26 09:50:00,
2013-05-26 04:55:00,70.0,67.3,29.79,SE,125,4.0,8.0,91,0.00,,---,0.00,0.00,VWS V14.00,2013-05-26 09:55:00,
2013-05-26 05:00:00,70.0,67.3,29.78,SE,125,4.0,9.0,91,0.00,,---,0.00,0.00,VWS V14.00,2013-05-26 10:00:00,
2013-05-26 05:05:00,70.0,67.3,29.78,SE,125,5.0,8.0,91,0.00,,---,0.00,0.00,VWS V14.00,2013-05-26 10:05:00,
2013-05-26 05:10:00,69.9,67.2,29.78,SE,125,5.0,11.0,91,0.00,,---,0.00,0.00,VWS V14.00,2013-05-26 10:10:00,
2013-05-26 05:15:00,70.0,67.3,29.78,SE,125,4.0,9.0,91,0.00,,---,0.00,0.00,VWS V14.00,2013-05-26 10:15:00,
2013-05-26 05:20:00,69.9,67.2,29.79,SE,127,2.0,12.0,91,0.00,,---,0.00,0.00,VWS V14.00,2013-05-26 10:20:00,
2013-05-26 05:25:00,70.0,67.3,29.79,SE,130,4.0,8.0,91,0.00,,---,0.00,0.00,VWS V14.00,2013-05-26 10:25:00,
2013-05-26 05:30:00,70.0,67.3,29.79,SE,130,4.0,8.0,91,0.00,,---,0.00,0.00,VWS V14.00,2013-05-26 10:30:00,
2013-05-26 05:35:00,70.0,67.3,29.79,SE,130,1.0,6.0,91,0.00,,---,0.00,0.00,VWS V14.00,2013-05-26 10:35:00,
2013-05-26 05:40:00,70.0,67.3,29.78,SE,130,2.0,8.0,91,0.00,,---,0.00,0.00,VWS V14.00,2013-05-26 10:40:00,
2013-05-26 05:45:00,70.0,67.3,29.78,SE,130,4.0,8.0,91,0.00,,---,0.00,0.00,VWS V14.00,2013-05-26 10:45:00,
2013-05-26 05:50:00,70.0,67.3,29.78,SE,130,7.0,12.0,91,0.00,,---,0.00,0.00,VWS V14.00,2013-05-26 10:50:00,
2013-05-26 05:55:00,69.9,67.2,29.77,SE,129,4.0,11.0,91,0.00,,---,0.00,0.00,VWS V14.00,2013-05-26 10:55:00,
2013-05-26 06:00:00,69.9,67.2,29.77,SE,129,0.0,11.0,91,0.00,,---,0.00,0.00,VWS V14.00,2013-05-26 11:00:00,
2013-05-26 06:05:00,69.9,67.2,29.77,SE,128,6.0,9.0,91,0.00,,---,0.00,0.00,VWS V14.00,2013-05-26 11:05:00,
2013-05-26 06:10:00,69.9,67.2,29.78,SE,129,8.0,11.0,91,0.00,,---,0.00,0.00,VWS V14.00,2013-05-26 11:10:00,
2013-05-26 06:15:00,69.9,67.2,29.78,SE,129,4.0,11.0,91,0.00,,---,0.00,0.00,VWS V14.00,2013-05-26 11:15:00,
2013-05-26 06:20:00,69.9,67.2,29.79,SE,129,5.0,11.0,91,0.00,,---,0.00,0.00,VWS V14.00,2013-05-26 11:20:00,
2013-05-26 06:25:00,69.9,67.2,29.79,SE,129,2.0,7.0,91,0.00,,---,0.00,0.00,VWS V14.00,2013-05-26 11:25:00,
2013-05-26 06:30:00,69.9,67.2,29.79,SE,129,4.0,8.0,91,0.00,,---,0.00,0.00,VWS V14.00,2013-05-26 11:30:00,
2013-05-26 06:35:00,69.9,67.2,29.79,SE,129,7.0,9.0,91,0.00,,---,0.00,0.00,VWS V14.00,2013-05-26 11:35:00,
2013-05-26 06:40:00,69.9,67.2,29.79,SE,129,4.0,9.0,91,0.00,,---,0.00,0.00,VWS V14.00,2013-05-26 11:40:00,
2013-05-26 06:45:00,69.9,67.2,29.79,SE,129,1.0,6.0,91,0.00,,---,0.00,7.00,VWS V14.00,2013-05-26 11:45:00,
2013-05-26 06:50:00,69.9,67.2,29.80,SE,129,2.0,8.0,91,0.00,,---,0.00,7.00,VWS V14.00,2013-05-26 11:50:00,
2013-05-26 06:55:00,70.0,67.3,29.79,SE,129,4.0,5.0,91,0.00,,---,0.00,9.00,VWS V14.00,2013-05-26 11:55:00,
2013-05-26 07:00:00,70.1,67.4,29.79,SE,129,4.0,5.0,91,0.00,,---,0.00,14.00,VWS V14.00,2013-05-26 12:00:00,
2013-05-26 07:05:00,70.1,67.4,29.78,SE,129,5.0,6.0,91,0.00,,---,0.00,23.00,VWS V14.00,2013-05-26 12:05:00,
2013-05-26 07:10:00,70.2,67.4,29.78,SE,132,4.0,9.0,91,0.00,,---,0.00,32.00,VWS V14.00,2013-05-26 12:10:00,
2013-05-26 07:15:00,70.2,67.4,29.78,SE,135,4.0,9.0,91,0.00,,---,0.00,39.00,VWS V14.00,2013-05-26 12:15:00,
2013-05-26 07:20:00,70.4,67.7,29.77,SE,140,5.0,9.0,91,0.00,,---,0.00,49.00,VWS V14.00,2013-05-26 12:20:00,
2013-05-26 07:25:00,70.4,67.3,29.78,SE,140,7.0,8.0,90,0.00,,---,0.00,62.00,VWS V14.00,2013-05-26 12:25:00,
2013-05-26 07:30:00,70.5,67.4,29.77,SE,140,5.0,8.0,90,0.00,,---,0.00,67.00,VWS V14.00,2013-05-26 12:30:00,
2013-05-26 07:35:00,70.6,67.5,29.77,SE,140,5.0,9.0,90,0.00,,---,0.00,69.00,VWS V14.00,2013-05-26 12:35:00,
2013-05-26 07:40:00,70.7,67.6,29.77,SSE,153,5.0,12.0,90,0.00,,---,0.00,69.00,VWS V14.00,2013-05-26 12:40:00,
2013-05-26 07:45:00,70.8,67.7,29.78,SE,137,4.0,13.0,90,0.00,,---,0.00,69.00,VWS V14.00,2013-05-26 12:45:00,
2013-05-26 07:50:00,70.9,67.8,29.77,SE,137,8.0,13.0,90,0.00,,---,0.00,74.00,VWS V14.00,2013-05-26 12:50:00,
2013-05-26 07:55:00,71.0,67.6,29.78,SE,142,6.0,10.0,89,0.00,,---,0.00,76.00,VWS V14.00,2013-05-26 12:55:00,
2013-05-26 08:00:00,71.1,67.7,29.78,SE,144,5.0,12.0,89,0.00,,---,0.00,77.00,VWS V14.00,2013-05-26 13:00:00,
2013-05-26 08:05:00,71.2,67.8,29.78,SSE,148,5.0,10.0,89,0.00,,---,0.00,79.00,VWS V14.00,2013-05-26 13:05:00,
2013-05-26 08:10:00,71.3,67.9,29.79,SE,137,2.0,15.0,89,0.00,,---,0.00,79.00,VWS V14.00,2013-05-26 13:10:00,
2013-05-26 08:15:00,71.3,67.9,29.79,SE,139,7.0,10.0,89,0.00,,---,0.00,77.00,VWS V14.00,2013-05-26 13:15:00,
2013-05-26 08:20:00,71.4,68.0,29.79,SE,140,6.0,11.0,89,0.00,,---,0.00,81.00,VWS V14.00,2013-05-26 13:20:00,
2013-05-26 08:25:00,71.5,68.1,29.79,SE,140,7.0,9.0,89,0.00,,---,0.00,88.00,VWS V14.00,2013-05-26 13:25:00,
2013-05-26 08:30:00,71.5,68.1,29.78,SE,141,7.0,11.0,89,0.00,,---,0.00,98.00,VWS V14.00,2013-05-26 13:30:00,
2013-05-26 08:35:00,71.6,68.2,29.78,SE,134,8.0,12.0,89,0.00,,---,0.00,109.00,VWS V14.00,2013-05-26 13:35:00,
2013-05-26 08:40:00,71.7,68.0,29.78,SE,146,5.0,15.0,88,0.00,,---,0.00,121.00,VWS V14.00,2013-05-26 13:40:00,
2013-05-26 08:45:00,71.8,68.4,29.78,SSE,157,5.0,13.0,89,0.00,,---,0.00,130.00,VWS V14.00,2013-05-26 13:45:00,
2013-05-26 08:50:00,71.9,68.5,29.78,SE,126,11.0,13.0,89,0.00,,---,0.00,139.00,VWS V14.00,2013-05-26 13:50:00,
2013-05-26 08:55:00,72.0,68.3,29.78,SE,137,6.0,11.0,88,0.00,,---,0.00,148.00,VWS V14.00,2013-05-26 13:55:00,
2013-05-26 09:00:00,72.1,68.3,29.78,SE,135,9.0,12.0,88,0.00,,---,0.00,151.00,VWS V14.00,2013-05-26 14:00:00,
2013-05-26 09:05:00,72.2,68.4,29.77,SE,139,9.0,13.0,88,0.00,,---,0.00,155.00,VWS V14.00,2013-05-26 14:05:00,
2013-05-26 09:10:00,72.3,68.6,29.78,SE,127,8.0,13.0,88,0.00,,---,0.00,156.00,VWS V14.00,2013-05-26 14:10:00,
2013-05-26 09:15:00,72.4,68.7,29.78,ESE,123,4.0,14.0,88,0.00,,---,0.00,156.00,VWS V14.00,2013-05-26 14:15:00,
2013-05-26 09:20:00,72.5,68.8,29.79,SE,125,4.0,14.0,88,0.00,,---,0.00,132.00,VWS V14.00,2013-05-26 14:20:00,
2013-05-26 09:25:00,72.6,68.8,29.79,SE,133,5.0,16.0,88,0.00,,---,0.00,95.00,VWS V14.00,2013-05-26 14:25:00,
2013-05-26 09:30:00,72.6,68.5,29.79,SE,139,11.0,16.0,87,0.00,,---,0.00,137.00,VWS V14.00,2013-05-26 14:30:00,
2013-05-26 09:35:00,72.7,68.6,29.78,SE,145,5.0,11.0,87,0.00,,---,0.00,172.00,VWS V14.00,2013-05-26 14:35:00,
2013-05-26 09:40:00,72.8,68.7,29.78,SSE,151,6.0,12.0,87,0.00,,---,0.00,190.00,VWS V14.00,2013-05-26 14:40:00,
2013-05-26 09:45:00,72.9,68.8,29.78,SSE,161,10.0,15.0,87,0.00,,---,0.00,204.00,VWS V14.00,2013-05-26 14:45:00,
2013-05-26 09:50:00,73.0,68.9,29.78,SE,142,6.0,15.0,87,0.00,,---,0.00,218.00,VWS V14.00,2013-05-26 14:50:00,
2013-05-26 09:55:00,73.1,69.0,29.78,SE,141,10.0,14.0,87,0.00,,---,0.00,234.00,VWS V14.00,2013-05-26 14:55:00,
2013-05-26 10:00:00,73.3,68.9,29.78,SE,143,8.0,14.0,86,0.00,,---,0.00,239.00,VWS V14.00,2013-05-26 15:00:00,
2013-05-26 10:05:00,73.5,69.1,29.78,SSE,152,4.0,14.0,86,0.00,,---,0.00,230.00,VWS V14.00,2013-05-26 15:05:00,
2013-05-26 10:10:00,73.6,69.2,29.78,SE,138,13.0,16.0,86,0.00,,---,0.00,221.00,VWS V14.00,2013-05-26 15:10:00,
2013-05-26 10:15:00,73.7,69.3,29.78,SSE,155,6.0,12.0,86,0.00,,---,0.00,207.00,VWS V14.00,2013-05-26 15:15:00,
2013-05-26 10:20:00,73.8,69.0,29.78,SE,143,8.0,14.0,85,0.00,,---,0.00,193.00,VWS V14.00,2013-05-26 15:20:00,
2013-05-26 10:25:00,73.8,69.0,29.78,ESE,121,13.0,15.0,85,0.00,,---,0.00,197.00,VWS V14.00,2013-05-26 15:25:00,
2013-05-26 10:30:00,73.8,69.3,29.78,SE,131,8.0,15.0,86,0.00,,---,0.00,190.00,VWS V14.00,2013-05-26 15:30:00,
2013-05-26 10:35:00,73.9,69.1,29.78,SE,138,11.0,19.0,85,0.00,,---,0.00,190.00,VWS V14.00,2013-05-26 15:35:00,
2013-05-26 10:40:00,73.9,69.1,29.77,SE,136,10.0,20.0,85,0.00,,---,0.00,197.00,VWS V14.00,2013-05-26 15:40:00,
2013-05-26 10:45:00,73.8,69.0,29.77,SSE,162,8.0,17.0,85,0.00,,---,0.00,204.00,VWS V14.00,2013-05-26 15:45:00,
2013-05-26 10:50:00,73.9,69.1,29.77,SE,136,20.0,20.0,85,0.00,,---,0.00,211.00,VWS V14.00,2013-05-26 15:50:00,
2013-05-26 10:55:00,73.9,69.1,29.77,SSE,168,14.0,23.0,85,0.00,,---,0.00,218.00,VWS V14.00,2013-05-26 15:55:00,
2013-05-26 11:00:00,74.0,69.2,29.77,SE,140,9.0,23.0,85,0.00,,---,0.00,216.00,VWS V14.00,2013-05-26 16:00:00,
2013-05-26 11:05:00,74.0,69.2,29.77,SSE,151,7.0,20.0,85,0.00,,---,0.00,200.00,VWS V14.00,2013-05-26 16:05:00,
2013-05-26 11:10:00,73.8,68.3,29.77,SSE,151,8.0,20.0,83,0.00,,---,0.00,257.00,VWS V14.00,2013-05-26 16:10:00,
2013-05-26 11:15:00,73.4,67.2,29.77,SSE,151,9.0,15.0,81,0.00,,---,0.00,285.00,VWS V14.00,2013-05-26 16:15:00,
2013-05-26 11:20:00,73.0,65.7,29.77,ESE,115,5.0,15.0,78,0.00,,---,0.00,311.00,VWS V14.00,2013-05-26 16:20:00,
2013-05-26 11:25:00,72.6,64.6,29.76,SSE,167,6.0,21.0,76,0.00,,---,0.00,345.00,VWS V14.00,2013-05-26 16:25:00,
2013-05-26 11:30:00,72.4,64.8,29.75,SE,139,10.0,21.0,77,0.00,,---,0.00,396.00,VWS V14.00,2013-05-26 16:30:00,
2013-05-26 11:35:00,72.1,64.5,29.75,SE,138,11.0,15.0,77,0.00,,---,0.00,461.00,VWS V14.00,2013-05-26 16:35:00,
2013-05-26 11:40:00,72.2,65.0,29.75,SSE,155,7.0,15.0,78,0.00,,---,0.00,548.00,VWS V14.00,2013-05-26 16:40:00,
2013-05-26 11:45:00,72.6,65.0,29.75,SE,140,8.0,13.0,77,0.00,,---,0.00,596.00,VWS V14.00,2013-05-26 16:45:00,
2013-05-26 11:50:00,73.1,65.1,29.76,SE,124,9.0,13.0,76,0.00,,---,0.00,613.00,VWS V14.00,2013-05-26 16:50:00,
2013-05-26 11:55:00,73.7,65.3,29.76,SE,127,5.0,9.0,75,0.00,,---,0.00,622.00,VWS V14.00,2013-05-26 16:55:00,
2013-05-26 12:00:00,74.3,65.9,29.76,SE,128,6.0,9.0,75,0.00,,---,0.00,601.00,VWS V14.00,2013-05-26 17:00:00,
2013-05-26 12:05:00,74.7,65.5,29.77,SE,142,5.0,10.0,73,0.00,,---,0.00,585.00,VWS V14.00,2013-05-26 17:05:00,
2013-05-26 12:10:00,75.1,65.5,29.77,SSE,155,7.0,10.0,72,0.00,,---,0.00,682.00,VWS V14.00,2013-05-26 17:10:00,
2013-05-26 12:15:00,75.5,65.0,29.78,SSE,157,5.0,9.0,70,0.00,,---,0.00,714.00,VWS V14.00,2013-05-26 17:15:00,
2013-05-26 12:20:00,75.9,65.4,29.78,SSE,157,5.0,9.0,70,0.00,,---,0.00,763.00,VWS V14.00,2013-05-26 17:20:00,
2013-05-26 12:25:00,76.5,65.6,29.78,SSE,157,4.0,7.0,69,0.00,,---,0.00,722.00,VWS V14.00,2013-05-26 17:25:00,
2013-05-26 12:30:00,77.0,66.1,29.79,SSE,148,4.0,10.0,69,0.00,,---,0.00,731.00,VWS V14.00,2013-05-26 17:30:00,
2013-05-26 12:35:00,77.5,66.1,29.79,SSE,154,5.0,9.0,68,0.00,,---,0.00,661.00,VWS V14.00,2013-05-26 17:35:00,
2013-05-26 12:40:00,77.6,64.9,29.80,South,181,6.0,12.0,65,0.00,,---,0.00,615.00,VWS V14.00,2013-05-26 17:40:00,
2013-05-26 12:45:00,77.5,65.7,29.79,SSE,162,2.0,9.0,67,0.00,,---,0.00,617.00,VWS V14.00,2013-05-26 17:45:00,
2013-05-26 12:50:00,77.6,66.6,29.79,SSE,165,5.0,9.0,69,0.00,,---,0.00,649.00,VWS V14.00,2013-05-26 17:50:00,
2013-05-26 12:55:00,77.7,66.7,29.79,South,171,6.0,9.0,69,0.00,,---,0.00,664.00,VWS V14.00,2013-05-26 17:55:00,
2013-05-26 13:00:00,77.9,66.9,29.79,South,171,0.0,9.0,69,0.00,,---,0.00,703.00,VWS V14.00,2013-05-26 18:00:00,
2013-05-26 13:05:00,78.1,67.5,29.79,SSE,166,10.0,10.0,70,0.00,,---,0.00,687.00,VWS V14.00,2013-05-26 18:05:00,
2013-05-26 13:10:00,78.2,67.6,29.78,SW,223,4.0,14.0,70,0.00,,---,0.00,663.00,VWS V14.00,2013-05-26 18:10:00,
2013-05-26 13:15:00,78.5,68.3,29.78,SW,221,3.0,5.0,71,0.00,,---,0.00,735.00,VWS V14.00,2013-05-26 18:15:00,
2013-05-26 13:20:00,78.8,68.6,29.78,SSW,207,3.0,7.0,71,0.00,,---,0.00,677.00,VWS V14.00,2013-05-26 18:20:00,
2013-05-26 13:25:00,79.1,68.9,29.78,SSW,211,6.0,10.0,71,0.00,,---,0.00,861.00,VWS V14.00,2013-05-26 18:25:00,
2013-05-26 13:30:00,79.5,69.7,29.78,SSW,194,9.0,10.0,72,0.00,,---,0.00,819.00,VWS V14.00,2013-05-26 18:30:00,
2013-05-26 13:35:00,79.7,69.9,29.78,South,182,4.0,8.0,72,0.00,,---,0.00,573.00,VWS V14.00,2013-05-26 18:35:00,
2013-05-26 13:40:00,79.9,70.1,29.78,South,187,6.0,9.0,72,0.00,,---,0.00,399.00,VWS V14.00,2013-05-26 18:40:00,
2013-05-26 13:45:00,80.0,70.2,29.78,South,190,1.0,9.0,72,0.00,,---,0.00,1027.00,VWS V14.00,2013-05-26 18:45:00,
2013-05-26 13:50:00,80.3,70.5,29.77,SSW,201,7.0,12.0,72,0.00,,---,0.00,1083.00,VWS V14.00,2013-05-26 18:50:00,
2013-05-26 13:55:00,80.7,70.4,29.77,SE,143,10.0,16.0,71,0.00,,---,0.00,1276.00,VWS V14.00,2013-05-26 18:55:00,
2013-05-26 14:00:00,80.8,70.5,29.76,SSE,165,5.0,16.0,71,0.00,,---,0.00,1202.00,VWS V14.00,2013-05-26 19:00:00,
2013-05-26 14:05:00,80.9,69.4,29.76,SSE,155,9.0,17.0,68,0.00,,---,0.00,1009.00,VWS V14.00,2013-05-26 19:05:00,
2013-05-26 14:10:00,80.8,69.7,29.77,SSE,154,6.0,17.0,69,0.00,,---,0.00,381.00,VWS V14.00,2013-05-26 19:10:00,
2013-05-26 14:15:00,80.5,69.0,29.76,South,172,2.0,13.0,68,0.00,,---,0.00,334.00,VWS V14.00,2013-05-26 19:15:00,
2013-05-26 14:20:00,80.3,69.2,29.76,South,178,6.0,13.0,69,0.00,,---,0.00,301.00,VWS V14.00,2013-05-26 19:20:00,
2013-05-26 14:25:00,80.0,69.8,29.76,South,169,4.0,7.0,71,0.00,,---,0.00,258.00,VWS V14.00,2013-05-26 19:25:00,
2013-05-26 14:30:00,80.0,69.8,29.76,SE,139,7.0,12.0,71,0.00,,---,0.00,373.00,VWS V14.00,2013-05-26 19:30:00,
2013-05-26 14:35:00,80.1,69.4,29.76,SSE,150,10.0,11.0,70,0.00,,---,0.00,332.00,VWS V14.00,2013-05-26 19:35:00,
2013-05-26 14:40:00,79.9,69.2,29.76,SSE,148,9.0,12.0,70,0.00,,---,0.00,385.00,VWS V14.00,2013-05-26 19:40:00,
2013-05-26 14:45:00,79.8,68.7,29.76,SSE,149,6.0,13.0,69,0.00,,---,0.00,438.00,VWS V14.00,2013-05-26 19:45:00,
2013-05-26 14:50:00,79.7,69.1,29.75,SE,142,6.0,13.0,70,0.00,,---,0.00,559.00,VWS V14.00,2013-05-26 19:50:00,
2013-05-26 14:55:00,79.9,69.2,29.75,SE,144,7.0,10.0,70,0.00,,---,0.00,573.00,VWS V14.00,2013-05-26 19:55:00,
2013-05-26 15:00:00,80.2,69.5,29.75,SE,142,8.0,13.0,70,0.00,,---,0.00,735.00,VWS V14.00,2013-05-26 20:00:00,
2013-05-26 15:05:00,80.9,69.8,29.74,SSE,158,11.0,13.0,69,0.00,,---,0.00,1183.00,VWS V14.00,2013-05-26 20:05:00,
2013-05-26 15:10:00,81.5,69.1,29.74,South,171,8.0,17.0,66,0.00,,---,0.00,1165.00,VWS V14.00,2013-05-26 20:10:00,
2013-05-26 15:15:00,81.8,69.3,29.74,SSE,163,7.0,13.0,66,0.00,,---,0.00,1016.00,VWS V14.00,2013-05-26 20:15:00,
2013-05-26 15:20:00,82.0,70.0,29.74,SE,146,2.0,13.0,67,0.00,,---,0.00,425.00,VWS V14.00,2013-05-26 20:20:00,
2013-05-26 15:25:00,82.0,70.0,29.74,South,169,1.0,13.0,67,0.00,,---,0.00,677.00,VWS V14.00,2013-05-26 20:25:00,
2013-05-26 15:30:00,82.3,70.7,29.74,SW,228,13.0,13.0,68,0.00,,---,0.00,926.00,VWS V14.00,2013-05-26 20:30:00,
2013-05-26 15:35:00,82.4,69.0,29.74,SSE,155,4.0,11.0,64,0.00,,---,0.00,1095.00,VWS V14.00,2013-05-26 20:35:00,
2013-05-26 15:40:00,82.9,69.5,29.73,SSW,194,4.0,12.0,64,0.00,,---,0.00,1007.00,VWS V14.00,2013-05-26 20:40:00,
2013-05-26 15:45:00,83.5,68.7,29.73,South,169,9.0,14.0,61,0.00,,---,0.00,554.00,VWS V14.00,2013-05-26 20:45:00,
2013-05-26 15:50:00,83.4,68.1,29.73,SSE,164,5.0,15.0,60,0.00,,---,0.00,1095.00,VWS V14.00,2013-05-26 20:50:00,
2013-05-26 15:55:00,83.6,67.3,29.73,SSE,150,8.0,11.0,58,0.00,,---,0.00,411.00,VWS V14.00,2013-05-26 20:55:00,
2013-05-26 16:00:00,83.6,66.8,29.73,SE,141,5.0,13.0,57,0.00,,---,0.00,401.00,VWS V14.00,2013-05-26 21:00:00,
2013-05-26 16:05:00,83.5,66.7,29.73,SSE,156,11.0,13.0,57,0.00,,---,0.00,1034.00,VWS V14.00,2013-05-26 21:05:00,
2013-05-26 16:10:00,83.7,66.9,29.73,SSE,165,2.0,17.0,57,0.00,,---,0.00,960.00,VWS V14.00,2013-05-26 21:10:00,
2013-05-26 16:15:00,84.2,67.3,29.72,SSW,201,3.0,13.0,57,0.00,,---,0.00,956.00,VWS V14.00,2013-05-26 21:15:00,
2013-05-26 16:20:00,84.5,67.1,29.72,SSW,211,9.0,13.0,56,0.00,,---,0.00,962.00,VWS V14.00,2013-05-26 21:20:00,
2013-05-26 16:25:00,84.6,68.2,29.71,SE,142,4.0,8.0,58,0.00,,---,0.00,965.00,VWS V14.00,2013-05-26 21:25:00,
2013-05-26 16:30:00,84.8,66.8,29.72,SSE,160,12.0,12.0,55,0.00,,---,0.00,227.00,VWS V14.00,2013-05-26 21:30:00,
2013-05-26 16:35:00,84.5,68.1,29.71,SSE,155,6.0,8.0,58,0.00,,---,0.00,940.00,VWS V14.00,2013-05-26 21:35:00,
2013-05-26 16:40:00,84.2,67.8,29.71,South,177,7.0,11.0,58,0.00,,---,0.00,229.00,VWS V14.00,2013-05-26 21:40:00,
2013-05-26 16:45:00,84.0,68.6,29.71,SE,146,6.0,14.0,60,0.00,,---,0.00,169.00,VWS V14.00,2013-05-26 21:45:00,
2013-05-26 16:50:00,83.4,68.6,29.71,SE,134,5.0,14.0,61,0.00,,---,0.00,148.00,VWS V14.00,2013-05-26 21:50:00,
2013-05-26 16:55:00,83.2,68.4,29.70,SE,143,4.0,9.0,61,0.00,,---,0.00,751.00,VWS V14.00,2013-05-26 21:55:00,
2013-05-26 17:00:00,83.8,68.4,29.70,SSE,165,4.0,10.0,60,0.00,,---,0.00,796.00,VWS V14.00,2013-05-26 22:00:00,
2013-05-26 17:05:00,84.3,68.9,29.70,SE,139,11.0,15.0,60,0.00,,---,0.00,803.00,VWS V14.00,2013-05-26 22:05:00,
2013-05-26 17:10:00,84.4,68.5,29.70,SSE,148,4.0,15.0,59,0.00,,---,0.00,722.00,VWS V14.00,2013-05-26 22:10:00,
2013-05-26 17:15:00,84.3,68.9,29.70,SE,131,7.0,12.0,60,0.00,,---,0.00,663.00,VWS V14.00,2013-05-26 22:15:00,
2013-05-26 17:20:00,84.2,68.8,29.69,SE,146,10.0,13.0,60,0.00,,---,0.00,680.00,VWS V14.00,2013-05-26 22:20:00,
2013-05-26 17:25:00,84.3,68.9,29.70,SE,139,10.0,13.0,60,0.00,,---,0.00,700.00,VWS V14.00,2013-05-26 22:25:00,
2013-05-26 17:30:00,84.5,70.1,29.69,SE,145,6.0,14.0,62,0.00,,---,0.00,642.00,VWS V14.00,2013-05-26 22:30:00,
2013-05-26 17:35:00,84.6,67.7,29.70,SSW,204,10.0,14.0,57,0.00,,---,0.00,582.00,VWS V14.00,2013-05-26 22:35:00,
2013-05-26 17:40:00,84.7,67.3,29.69,SSW,200,6.0,14.0,56,0.00,,---,0.00,563.00,VWS V14.00,2013-05-26 22:40:00,
2013-05-26 17:45:00,84.6,67.2,29.69,SE,127,11.0,13.0,56,0.00,,---,0.00,547.00,VWS V14.00,2013-05-26 22:45:00,
2013-05-26 17:50:00,84.2,66.3,29.69,South,169,4.0,15.0,55,0.00,,---,0.00,529.00,VWS V14.00,2013-05-26 22:50:00,
2013-05-26 17:55:00,84.3,67.4,29.69,SSE,150,7.0,12.0,57,0.00,,---,0.00,508.00,VWS V14.00,2013-05-26 22:55:00,
2013-05-26 18:00:00,84.3,68.9,29.68,South,172,11.0,12.0,60,0.00,,---,0.00,490.00,VWS V14.00,2013-05-26 23:00:00,
2013-05-26 18:05:00,84.1,69.2,29.68,SE,140,8.0,12.0,61,0.00,,---,0.00,471.00,VWS V14.00,2013-05-26 23:05:00,
2013-05-26 18:10:00,83.9,69.5,29.68,SE,135,11.0,14.0,62,0.00,,---,0.00,454.00,VWS V14.00,2013-05-26 23:10:00,
2013-05-26 18:15:00,83.6,69.7,29.68,SSE,155,6.0,14.0,63,0.00,,---,0.00,438.00,VWS V14.00,2013-05-26 23:15:00,
2013-05-26 18:20:00,83.3,69.9,29.67,SSE,149,7.0,14.0,64,0.00,,---,0.00,418.00,VWS V14.00,2013-05-26 23:20:00,
2013-05-26 18:25:00,83.0,69.6,29.67,ESE,102,14.0,21.0,64,0.00,,---,0.00,403.00,VWS V14.00,2013-05-26 23:25:00,
2013-05-26 18:30:00,82.7,70.2,29.67,SSE,154,8.0,21.0,66,0.00,,---,0.00,388.00,VWS V14.00,2013-05-26 23:30:00,
2013-05-26 18:35:00,82.6,70.1,29.67,SE,132,7.0,11.0,66,0.00,,---,0.00,369.00,VWS V14.00,2013-05-26 23:35:00,
2013-05-26 18:40:00,82.3,69.8,29.66,SE,137,7.0,14.0,66,0.00,,---,0.00,346.00,VWS V14.00,2013-05-26 23:40:00,
2013-05-26 18:45:00,81.9,68.5,29.67,SSE,157,11.0,16.0,64,0.00,,---,0.00,332.00,VWS V14.00,2013-05-26 23:45:00,
2013-05-26 18:50:00,81.5,69.1,29.66,SE,131,9.0,16.0,66,0.00,,---,0.00,316.00,VWS V14.00,2013-05-26 23:50:00,
2013-05-26 18:55:00,81.0,69.0,29.67,SSE,161,6.0,13.0,67,0.00,,---,0.00,299.00,VWS V14.00,2013-05-26 23:55:00,
2013-05-26 19:00:00,80.5,68.1,29.67,SE,138,12.0,15.0,66,0.00,,---,0.00,281.00,VWS V14.00,2013-05-27 00:00:00,
2013-05-26 19:05:00,80.2,68.3,29.67,SSE,158,11.0,13.0,67,0.00,,---,0.00,262.00,VWS V14.00,2013-05-27 00:05:00,
2013-05-26 19:10:00,79.9,67.5,29.67,SE,140,5.0,16.0,66,0.00,,---,0.00,244.00,VWS V14.00,2013-05-27 00:10:00,
2013-05-26 19:15:00,79.6,67.7,29.68,SSE,168,8.0,20.0,67,0.00,,---,0.00,221.00,VWS V14.00,2013-05-27 00:15:00,
2013-05-26 19:20:00,79.1,67.6,29.68,ESE,123,7.0,20.0,68,0.00,,---,0.00,137.00,VWS V14.00,2013-05-27 00:20:00,
2013-05-26 19:25:00,78.5,67.9,29.68,SSE,151,11.0,16.0,70,0.00,,---,0.00,105.00,VWS V14.00,2013-05-27 00:25:00,
2013-05-26 19:30:00,78.1,67.9,29.68,SE,126,5.0,16.0,71,0.00,,---,0.00,95.00,VWS V14.00,2013-05-27 00:30:00,
2013-05-26 19:35:00,77.9,68.2,29.68,SE,128,9.0,16.0,72,0.00,,---,0.00,105.00,VWS V14.00,2013-05-27 00:35:00,
2013-05-26 19:40:00,77.7,68.8,29.68,SSE,148,9.0,19.0,74,0.00,,---,0.00,121.00,VWS V14.00,2013-05-27 00:40:00,
2013-05-26 19:45:00,77.7,69.2,29.67,SSE,158,7.0,15.0,75,0.00,,---,0.00,104.00,VWS V14.00,2013-05-27 00:45:00,
2013-05-26 19:50:00,77.6,69.4,29.68,SE,140,13.0,15.0,76,0.00,,---,0.00,84.00,VWS V14.00,2013-05-27 00:50:00,
2013-05-26 19:55:00,77.5,69.3,29.67,SE,130,7.0,15.0,76,0.00,,---,0.00,70.00,VWS V14.00,2013-05-27 00:55:00,
2013-05-26 20:00:00,77.4,69.6,29.67,SSE,159,6.0,18.0,77,0.00,,---,0.00,56.00,VWS V14.00,2013-05-27 01:00:00,
2013-05-26 20:05:00,77.3,69.9,29.68,SSE,152,4.0,16.0,78,0.00,,---,0.00,42.00,VWS V14.00,2013-05-27 01:05:00,
2013-05-26 20:10:00,77.0,69.6,29.68,SSE,154,5.0,16.0,78,0.00,,---,0.00,30.00,VWS V14.00,2013-05-27 01:10:00,
2013-05-26 20:15:00,76.8,69.4,29.68,SE,140,5.0,14.0,78,0.00,,---,0.00,18.00,VWS V14.00,2013-05-27 01:15:00,
2013-05-26 20:20:00,76.5,69.1,29.68,SSE,151,7.0,16.0,78,0.00,,---,0.00,11.00,VWS V14.00,2013-05-27 01:20:00,
2013-05-26 20:25:00,76.3,69.3,29.69,ESE,116,7.0,12.0,79,0.00,,---,0.00,7.00,VWS V14.00,2013-05-27 01:25:00,
2013-05-26 20:30:00,76.1,69.1,29.69,SSE,150,13.0,15.0,79,0.00,,---,0.00,5.00,VWS V14.00,2013-05-27 01:30:00,
2013-05-26 20:35:00,75.9,68.9,29.69,SSE,167,6.0,13.0,79,0.00,,---,0.00,0.00,VWS V14.00,2013-05-27 01:35:00,
2013-05-26 20:40:00,75.7,69.1,29.69,ESE,120,5.0,13.0,80,0.00,,---,0.00,0.00,VWS V14.00,2013-05-27 01:40:00,
2013-05-26 20:45:00,75.6,69.0,29.69,ESE,121,4.0,8.0,80,0.00,,---,0.00,0.00,VWS V14.00,2013-05-27 01:45:00,
2013-05-26 20:50:00,75.3,69.1,29.69,ESE,121,6.0,11.0,81,0.00,,---,0.00,0.00,VWS V14.00,2013-05-27 01:50:00,
2013-05-26 20:55:00,75.1,68.9,29.69,SE,138,6.0,13.0,81,0.00,,---,0.00,0.00,VWS V14.00,2013-05-27 01:55:00,
2013-05-26 21:00:00,75.0,69.1,29.69,SE,133,7.0,13.0,82,0.00,,---,0.00,0.00,VWS V14.00,2013-05-27 02:00:00,
2013-05-26 21:05:00,74.8,68.9,29.69,SE,136,7.0,11.0,82,0.00,,---,0.00,0.00,VWS V14.00,2013-05-27 02:05:00,
2013-05-26 21:10:00,74.7,68.8,29.69,SE,138,5.0,11.0,82,0.00,,---,0.00,0.00,VWS V14.00,2013-05-27 02:10:00,
2013-05-26 21:15:00,74.5,69.0,29.69,SE,134,7.0,7.0,83,0.00,,---,0.00,0.00,VWS V14.00,2013-05-27 02:15:00,
2013-05-26 21:20:00,74.4,68.9,29.69,SE,138,8.0,14.0,83,0.00,,---,0.00,0.00,VWS V14.00,2013-05-27 02:20:00,
2013-05-26 21:25:00,74.2,68.7,29.69,SE,137,4.0,12.0,83,0.00,,---,0.00,0.00,VWS V14.00,2013-05-27 02:25:00,
2013-05-26 21:30:00,74.1,69.0,29.69,SE,135,6.0,12.0,84,0.00,,---,0.00,0.00,VWS V14.00,2013-05-27 02:30:00,
2013-05-26 21:35:00,73.9,68.8,29.70,SE,139,5.0,12.0,84,0.00,,---,0.00,0.00,VWS V14.00,2013-05-27 02:35:00,
2013-05-26 21:40:00,73.8,69.0,29.70,SE,140,6.0,12.0,85,0.00,,---,0.00,0.00,VWS V14.00,2013-05-27 02:40:00,
2013-05-26 21:45:00,73.6,68.8,29.70,SE,140,5.0,8.0,85,0.00,,---,0.00,0.00,VWS V14.00,2013-05-27 02:45:00,
2013-05-26 21:50:00,73.4,68.6,29.70,SE,139,4.0,10.0,85,0.00,,---,0.00,0.00,VWS V14.00,2013-05-27 02:50:00,
2013-05-26 21:55:00,73.3,68.9,29.70,SE,139,2.0,9.0,86,0.00,,---,0.00,0.00,VWS V14.00,2013-05-27 02:55:00,
2013-05-26 22:00:00,73.1,68.7,29.70,SE,140,7.0,9.0,86,0.00,,---,0.00,0.00,VWS V14.00,2013-05-27 03:00:00,
2013-05-26 22:05:00,73.0,68.6,29.70,SE,139,2.0,10.0,86,0.00,,---,0.00,0.00,VWS V14.00,2013-05-27 03:05:00,
2013-05-26 22:10:00,72.8,68.7,29.69,SE,138,5.0,10.0,87,0.00,,---,0.00,0.00,VWS V14.00,2013-05-27 03:10:00,
2013-05-26 22:15:00,72.7,68.6,29.70,SE,139,5.0,8.0,87,0.00,,---,0.00,0.00,VWS V14.00,2013-05-27 03:15:00,
2013-05-26 22:20:00,72.5,68.4,29.70,SE,138,6.0,8.0,87,0.00,,---,0.00,0.00,VWS V14.00,2013-05-27 03:20:00,
2013-05-26 22:25:00,72.4,68.3,29.70,SE,138,7.0,8.0,87,0.00,,---,0.00,0.00,VWS V14.00,2013-05-27 03:25:00,
2013-05-26 22:30:00,72.3,68.2,29.71,SE,135,6.0,10.0,87,0.00,,---,0.00,0.00,VWS V14.00,2013-05-27 03:30:00,
2013-05-26 22:35:00,72.2,68.1,29.71,SE,132,5.0,9.0,87,0.00,,---,0.00,0.00,VWS V14.00,2013-05-27 03:35:00,
2013-05-26 22:40:00,72.2,68.1,29.72,ESE,111,7.0,17.0,87,0.00,,---,0.00,0.00,VWS V14.00,2013-05-27 03:40:00,
2013-05-26 22:45:00,72.2,68.1,29.71,ESE,103,5.0,12.0,87,0.00,,---,0.00,0.00,VWS V14.00,2013-05-27 03:45:00,
2013-05-26 22:50:00,72.2,67.8,29.72,SE,136,15.0,15.0,86,0.00,,---,0.00,0.00,VWS V14.00,2013-05-27 03:50:00,
2013-05-26 22:55:00,72.2,67.8,29.72,SE,133,9.0,16.0,86,0.00,,---,0.00,0.00,VWS V14.00,2013-05-27 03:55:00,
2013-05-26 23:00:00,72.2,67.4,29.72,SSE,154,6.0,17.0,85,0.00,,---,0.00,0.00,VWS V14.00,2013-05-27 04:00:00,
2013-05-26 23:01:00,72.2,67.4,29.72,SE,146,8.0,17.0,85,0.00,,---,0.00,0.00,VWS V14.00,2013-05-27 04:01:00,
2013-05-26 23:06:00,72.2,67.4,29.72,SE,129,8.0,15.0,85,0.00,,---,0.00,0.00,VWS V14.00,2013-05-27 04:06:00,
2013-05-26 23:10:00,72.2,67.4,29.72,SSE,151,10.0,15.0,85,0.00,,SKC,0.00,0.00,VWS V14.01,2013-05-27 04:10:00,
2013-05-26 23:11:00,72.3,67.5,29.72,SE,137,7.0,15.0,85,0.00,,---,0.00,0.00,VWS V14.00,2013-05-27 04:11:00,
2013-05-26 23:16:00,72.2,67.1,29.72,ESE,123,13.0,15.0,84,0.00,,---,0.00,0.00,VWS V14.00,2013-05-27 04:16:00,
2013-05-26 23:20:00,72.2,67.1,29.72,SSE,148,5.0,15.0,84,0.00,,SKC,0.00,0.00,VWS V14.01,2013-05-27 04:20:00,
2013-05-26 23:21:00,72.2,67.1,29.72,SSE,149,9.0,15.0,84,0.00,,---,0.00,0.00,VWS V14.00,2013-05-27 04:21:00,
2013-05-26 23:26:00,72.1,67.0,29.72,SE,134,8.0,18.0,84,0.00,,---,0.00,0.00,VWS V14.00,2013-05-27 04:26:00,
2013-05-26 23:30:00,72.1,67.0,29.72,SSE,163,8.0,18.0,84,0.00,,SKC,0.00,0.00,VWS V14.01,2013-05-27 04:30:00,
2013-05-26 23:31:00,72.1,67.0,29.72,ESE,121,15.0,18.0,84,0.00,,---,0.00,0.00,VWS V14.00,2013-05-27 04:31:00,
2013-05-26 23:36:00,72.0,66.9,29.72,SE,127,11.0,14.0,84,0.00,,---,0.00,0.00,VWS V14.00,2013-05-27 04:36:00,
2013-05-26 23:40:00,71.9,66.8,29.72,SSE,154,5.0,14.0,84,0.00,,SKC,0.00,0.00,VWS V14.01,2013-05-27 04:40:00,
2013-05-26 23:41:00,71.9,66.8,29.72,SE,137,5.0,14.0,84,0.00,,---,0.00,0.00,VWS V14.00,2013-05-27 04:41:00,
2013-05-26 23:46:00,71.8,66.7,29.72,ESE,115,5.0,11.0,84,0.00,,---,0.00,0.00,VWS V14.00,2013-05-27 04:46:00,
2013-05-26 23:50:00,71.7,67.0,29.72,SSE,155,7.0,13.0,85,0.00,,SKC,0.00,0.00,VWS V14.01,2013-05-27 04:50:00,
2013-05-26 23:51:00,71.7,66.9,29.72,SE,133,12.0,13.0,85,0.00,,---,0.00,0.00,VWS V14.00,2013-05-27 04:51:00,
2013-05-26 23:56:00,71.6,66.9,29.72,SE,132,4.0,12.0,85,0.00,,---,0.00,0.00,VWS V14.00,2013-05-27 04:56:00,